COSMOS 2251 DEB, 35902

Orbit data source: Space-Track

COSMOS 2251 DEB, 35902 is space debris in LEO originally from a launch on Wed, 16 Jun 1993 UTC launched from the Plesetsk Missile And Space Complex (PKMTR). The debris from Iridium 33, an American commercial communications satellite, has been tracked extensively since its accidental collision with the defunct Russian satellite Cosmos 2251 in 2009. This event, occurring at high speed in low Earth orbit (LEO), generated thousands of pieces of space debris, significantly increasing the risk of further collisions. The Iridium 33 debris cloud has impacted space traffic management and orbital debris mitigation strategies, making it a subject of ongoing study in space situational awareness.

Loading next visibility...
Identifier
35902, 1993-036AUR
Orbit
LEO
Country
Flag of CISCIS
Related business
Manufacturer
Unknown
Mission
Spacecraft
Bus & Motor
Unknown
Mass
Unknown
Launch date (UTC)
1993-06-16 (33 years ago)
Launch vehicle
Unknown
Launch site
Plesetsk Missile And Space Complex (PKMTR)
Object type
Payload
Rocket body
Debris
Shape & HBR
Unknown shape, 0.1 m
Radar Cross Section
Small (<0.1 m²)

Expand to show TLE details & history
Last TLE update: 13 hours ago

TLE from 13 hours ago
0 COSMOS 2251 DEB
1 35902U 93036AUR 26033.64166010  .00003402  00000-0  13241-2 0  9990
2 35902  73.9851 140.3583 0103373 245.1272 113.9102 14.27260397618708
Epoch: 2026-02-02T15:23Z
TLE epoch observation values (Epoch: 2026-02-02T15:23:59.432Z)
Latitude
-0.00004°
Longitude
136.52663°
Altitude
834.221 km
Speed
7.42 km/s
True Right ascension
09h 21m 25s
True Declination
0° 00' 00"
Sunlit
Object was in full shadow at epoch
Visualization orbit readout
Latitude
Unknown
Longitude
Unknown
Altitude
Unknown
Speed
Unknown
Apparent Right ascension
Unknown
Apparent Declination
Unknown
Sunlit
N/A
Visualization observer readout
Local Sidereal Time
05:52:47
Azimuth
Unknown
Elevation
Unknown
Doppler factor
Unknown
Orbital elements
Apogee altitude
872.728 km
Perigee altitude
724.353 km
Semi-major axis
7,176.678 km
Eccentricity
0.01034
Inclination
73.9851°
RAAN
140.3583°
Arg. of periapsis
245.1272°
True anomaly
114.9874°
Mean anomaly
113.9102°
Eccentric anomaly
114.44937°
Mean motion
3.56992 °/min
Orbital period
100.84 mins
BSTAR
0.0013241
Loading maneuver chart data...
Computing Atmospheric mass density...

Documentation

Showing up to 5 results
|